Tracking 17855 objects as of 25-September-2016
HD Live streaming from Space Station
objects crossing your sky now

ARIANE 44LP DEB

Track ARIANE 44LP DEB now!
10-day predictions


NORAD ID: 27662
Int'l Code: 1991-015N
Perigee: 424.2 km
Apogee: 24,069.3 km
Inclination: 6.0 °
Period: 421.4 minutes
Semi major axis: 18617 km
RCS: 0.2322 m2 (medium)
Launch date: March 2, 1991
Source: France (FR)
Launch site: FRENCH GUIANA (FRGUI)

Note: This is SATELLITE DEBRIS
Your satellite tracking list
Your tracking list is empty





NASA's NSSDC Master Catalog

Two Line Element Set (TLE):
1 27662U 91015N   16264.62690170  .00001098  00000-0  18001-2 0  9999
2 27662   5.9901 342.7054 6350126  30.8708 354.4316  3.41752653203303
Source of the keplerian elements: AFSPC

N2YO: 441